When you browse on this site, cookies collect data to enhance your experience and personalize the content and advertising you see.
Visit our Privacy Policy to learn more. By continuing to use the site, you agree to this use of cookies and data.
  • In Switzerland
  • List of Countries
  • For 7 days
  • Water Temperature
  • Weather Map
  • Weather Widgets
  • user-avatar
    Login

    Hourly Weather Fateevo

    Today, 26 August, Monday

    Time Temperature Precipitation Wind Pressure Humidity
    00:00 +12°C° 0 mm 3 mps 754 mmHg 91%
    01:00 +13°C° 0 mm 2 mps 754 mmHg 91%
    02:00 +12°C° 0 mm 2 mps 754 mmHg 91%
    03:00 +12°C° 0 mm 1 mps 755 mmHg 91%
    04:00 +11°C° 0 mm 1 mps 755 mmHg 90%
    05:00 +10°C° 0 mm 0 mps 755 mmHg 90%
    06:00 +10°C° 0 mm 0 mps 755 mmHg 90%
    07:00 +12°C° 0 mm 0 mps 755 mmHg 85%
    08:00 +14°C° 0 mm 0 mps 755 mmHg 79%
    09:00 +15°C° 0 mm 0 mps 755 mmHg 73%
    10:00 +16°C° 0 mm 0 mps 755 mmHg 69%
    11:00 +18°C° 0 mm 0 mps 755 mmHg 64%
    12:00 +21°C° 0 mm 1 mps 754 mmHg 60%
    13:00 +21°C° 0 mm 1 mps 754 mmHg 59%
    14:00 +20°C° 0 mm 2 mps 754 mmHg 59%
    15:00 +21°C° 0 mm 2 mps 754 mmHg 58%
    16:00 +20°C° 0 mm 2 mps 753 mmHg 62%
    17:00 +20°C° 0 mm 2 mps 753 mmHg 66%
    18:00 +20°C° 0 mm 2 mps 752 mmHg 69%
    19:00 +19°C° 0 mm 2 mps 752 mmHg 73%
    20:00 +17°C° 0 mm 2 mps 752 mmHg 77%
    21:00 +16°C° 0 mm 2 mps 751 mmHg 81%
    22:00 +16°C° 0 mm 3 mps 751 mmHg 82%
    23:00 +14°C° 0 mm 3 mps 751 mmHg 82%

    Tomorrow, 27 August, Tuesday

    Time Temperature Precipitation Wind Pressure Humidity
    00:00 +14°C° 0 mm 3 mps 750 mmHg 83%
    01:00 +14°C° 0 mm 3 mps 750 mmHg 83%
    02:00 +14°C° 0 mm 3 mps 750 mmHg 84%
    03:00 +14°C° 0 mm 4 mps 749 mmHg 84%
    04:00 +14°C° 0 mm 4 mps 749 mmHg 85%
    05:00 +14°C° 0 mm 4 mps 748 mmHg 86%
    06:00 +14°C° 0 mm 4 mps 748 mmHg 87%
    07:00 +15°C° 0.1 mm 5 mps 748 mmHg 86%
    08:00 +16°C° 0.1 mm 5 mps 748 mmHg 84%
    09:00 +17°C° 0.1 mm 5 mps 748 mmHg 83%
    10:00 +19°C° 0.6 mm 5 mps 747 mmHg 79%
    11:00 +20°C° 0.6 mm 5 mps 747 mmHg 74%
    12:00 +21°C° 0.6 mm 6 mps 747 mmHg 70%
    13:00 +22°C° 0.1 mm 6 mps 747 mmHg 66%
    14:00 +22°C° 0.1 mm 6 mps 747 mmHg 62%
    15:00 +22°C° 0.1 mm 6 mps 747 mmHg 58%
    16:00 +22°C° 0 mm 5 mps 747 mmHg 61%
    17:00 +21°C° 0 mm 4 mps 747 mmHg 64%
    18:00 +20°C° 0 mm 3 mps 747 mmHg 67%
    19:00 +19°C° 0 mm 3 mps 748 mmHg 71%
    20:00 +17°C° 0 mm 4 mps 748 mmHg 74%
    21:00 +15°C° 0 mm 4 mps 748 mmHg 78%
    22:00 +14°C° 0 mm 3 mps 749 mmHg 80%
    23:00 +13°C° 0 mm 3 mps 749 mmHg 82%

    Day after tomorrow, 28 August, Wednesday

    Time Temperature Precipitation Wind Pressure Humidity
    00:00 +12°C° 0 mm 3 mps 749 mmHg 84%
    01:00 +11°C° 0 mm 3 mps 749 mmHg 86%
    02:00 +10°C° 0 mm 3 mps 750 mmHg 88%
    03:00 +10°C° 0 mm 3 mps 750 mmHg 90%
    04:00 +9°C° 0 mm 3 mps 750 mmHg 90%
    05:00 +9°C° 0 mm 3 mps 750 mmHg 90%
    06:00 +9°C° 0 mm 3 mps 751 mmHg 90%
    07:00 +10°C° 0 mm 4 mps 751 mmHg 83%
    08:00 +10°C° 0 mm 5 mps 751 mmHg 76%
    09:00 +12°C° 0 mm 5 mps 751 mmHg 68%
    10:00 +13°C° 0 mm 5 mps 751 mmHg 65%
    11:00 +14°C° 0 mm 5 mps 751 mmHg 61%
    12:00 +15°C° 0 mm 6 mps 751 mmHg 58%
    13:00 +15°C° 0 mm 6 mps 751 mmHg 55%
    14:00 +15°C° 0 mm 6 mps 751 mmHg 52%
    15:00 +15°C° 0 mm 6 mps 751 mmHg 49%
    16:00 +15°C° 0 mm 5 mps 752 mmHg 53%
    17:00 +14°C° 0 mm 4 mps 752 mmHg 57%
    18:00 +14°C° 0 mm 3 mps 752 mmHg 61%
    19:00 +12°C° 0 mm 3 mps 752 mmHg 64%
    20:00 +11°C° 0 mm 3 mps 753 mmHg 67%
    21:00 +9°C° 0 mm 2 mps 753 mmHg 70%
    22:00 +9°C° 0 mm 2 mps 753 mmHg 73%
    23:00 +8°C° 0 mm 2 mps 753 mmHg 75%

    29 August, Thursday

    Time Temperature Precipitation Wind Pressure Humidity
    00:00 +8°C° 0 mm 2 mps 753 mmHg 78%
    01:00 +8°C° 0 mm 2 mps 753 mmHg 80%
    02:00 +7°C° 0 mm 2 mps 754 mmHg 82%
    03:00 +7°C° 0 mm 2 mps 754 mmHg 84%
    04:00 +7°C° 0 mm 2 mps 754 mmHg 85%
    05:00 +7°C° 0 mm 2 mps 754 mmHg 86%
    06:00 +7°C° 0 mm 1 mps 754 mmHg 87%
    07:00 +8°C° 0 mm 2 mps 754 mmHg 80%
    08:00 +10°C° 0 mm 2 mps 754 mmHg 73%
    09:00 +13°C° 0 mm 2 mps 754 mmHg 67%
    10:00 +14°C° 0 mm 2 mps 754 mmHg 61%
    11:00 +15°C° 0 mm 2 mps 754 mmHg 56%
    12:00 +17°C° 0 mm 2 mps 754 mmHg 51%
    13:00 +17°C° 0 mm 2 mps 753 mmHg 53%
    14:00 +18°C° 0 mm 2 mps 753 mmHg 54%
    15:00 +19°C° 0 mm 2 mps 753 mmHg 56%
    16:00 +19°C° 0 mm 2 mps 752 mmHg 60%
    17:00 +18°C° 0 mm 2 mps 752 mmHg 64%
    18:00 +19°C° 0 mm 1 mps 752 mmHg 69%
    19:00 +17°C° 0 mm 2 mps 752 mmHg 72%
    20:00 +15°C° 0 mm 2 mps 752 mmHg 76%
    21:00 +14°C° 0 mm 2 mps 751 mmHg 79%
    22:00 +14°C° 0 mm 2 mps 751 mmHg 81%
    23:00 +12°C° 0 mm 3 mps 751 mmHg 82%

    30 August, Friday

    Time Temperature Precipitation Wind Pressure Humidity
    00:00 +12°C° 0 mm 3 mps 751 mmHg 83%
    01:00 +11°C° 0 mm 3 mps 751 mmHg 85%
    02:00 +11°C° 0 mm 3 mps 750 mmHg 87%
    03:00 +11°C° 0 mm 3 mps 750 mmHg 88%
    04:00 +11°C° 0 mm 3 mps 750 mmHg 89%
    05:00 +11°C° 0 mm 3 mps 750 mmHg 89%
    06:00 +11°C° 0 mm 3 mps 750 mmHg 89%
    07:00 +12°C° 0 mm 4 mps 750 mmHg 84%
    08:00 +14°C° 0 mm 4 mps 750 mmHg 78%
    09:00 +16°C° 0 mm 5 mps 750 mmHg 72%
    10:00 +17°C° 0 mm 5 mps 750 mmHg 68%
    11:00 +19°C° 0 mm 5 mps 750 mmHg 65%
    12:00 +21°C° 0 mm 5 mps 750 mmHg 61%
    13:00 +21°C° 0.1 mm 4 mps 750 mmHg 60%
    14:00 +21°C° 0.1 mm 4 mps 750 mmHg 60%
    15:00 +22°C° 0.1 mm 4 mps 749 mmHg 60%
    16:00 +21°C° 0.2 mm 4 mps 749 mmHg 67%
    17:00 +20°C° 0.2 mm 3 mps 749 mmHg 73%
    18:00 +19°C° 0.2 mm 3 mps 749 mmHg 79%
    19:00 +17°C° 0 mm 2 mps 750 mmHg 83%
    20:00 +16°C° 0 mm 2 mps 750 mmHg 87%
    21:00 +14°C° 0 mm 2 mps 750 mmHg 91%
    22:00 +14°C° 0 mm 2 mps 750 mmHg 91%
    23:00 +13°C° 0 mm 2 mps 750 mmHg 91%

    31 August, Saturday

    Time Temperature Precipitation Wind Pressure Humidity
    00:00 +13°C° 0 mm 2 mps 750 mmHg 91%
    01:00 +12°C° 0 mm 2 mps 750 mmHg 91%
    02:00 +12°C° 0 mm 2 mps 750 mmHg 91%
    03:00 +12°C° 0 mm 2 mps 750 mmHg 92%
    04:00 +12°C° 0 mm 2 mps 750 mmHg 92%
    05:00 +12°C° 0 mm 2 mps 750 mmHg 93%
    06:00 +12°C° 0 mm 2 mps 750 mmHg 94%
    07:00 +13°C° 0 mm 2 mps 750 mmHg 90%
    08:00 +15°C° 0 mm 2 mps 750 mmHg 85%
    09:00 +17°C° 0 mm 2 mps 749 mmHg 80%
    10:00 +18°C° 0 mm 2 mps 749 mmHg 73%
    11:00 +20°C° 0 mm 2 mps 749 mmHg 66%
    12:00 +21°C° 0 mm 2 mps 749 mmHg 59%
    13:00 +23°C° 0 mm 2 mps 749 mmHg 57%
    14:00 +22°C° 0 mm 3 mps 748 mmHg 56%
    15:00 +24°C° 0 mm 3 mps 748 mmHg 55%
    16:00 +22°C° 0 mm 3 mps 748 mmHg 59%
    17:00 +21°C° 0 mm 3 mps 748 mmHg 64%
    18:00 +21°C° 0 mm 3 mps 748 mmHg 69%
    19:00 +19°C° 0 mm 3 mps 748 mmHg 71%
    20:00 +17°C° 0 mm 2 mps 747 mmHg 73%
    21:00 +16°C° 0 mm 2 mps 747 mmHg 75%
    22:00 +15°C° 0 mm 2 mps 747 mmHg 77%
    23:00 +15°C° 0 mm 2 mps 748 mmHg 79%
    Show more